Retour au catalogue

STARLINK-34373

ActifCommunicationsSSO
NORAD 64944·PAYLOAD·🇺🇸 United States

Lancé Jul 26, 2025 depuis Vandenberg Space Force Base

Loading…

Prochains Passages (prochaines 24 heures)

TLE

FraisSource: CelesTrak SupGP

Époque: Sep 14, 2026, 22:40 UTC

1 64944C 25158N   26257.94493056  .00073250  00000+0  22744-2 0  2574
2 64944  97.2843 116.3744 0001631  92.9247  62.2151 15.33394427    11

Suivez STARLINK-34373 en temps réel avec AllMySat

Download on the App Store